Date,Time,Wetness (Wet Dry or Ice),Wind Speed (m/s),Temperature (C),Humidity (%),Pressure (mb),Radiation (W/m^2)
2018-12-29,02:10:00,DRY,3.03,6.67,9.7,776.00,1.3
2018-12-29,02:15:00,DRY,2.55,6.65,10.0,776.00,1.6
2018-12-29,02:20:00,DRY,2.93,6.37,10.3,776.00,1.3
2018-12-29,02:25:00,DRY,3.20,6.40,10.5,776.00,0.8
2018-12-29,02:30:00,DRY,2.17,6.50,10.3,776.00,0.8
2018-12-29,02:35:00,DRY,2.35,6.50,11.0,776.00,1.0
2018-12-29,02:40:00,DRY,2.33,6.57,10.7,776.00,1.3
2018-12-29,02:45:00,DRY,2.40,6.80,9.5,776.00,1.2
2018-12-29,02:50:00,DRY,2.83,7.13,8.7,776.00,1.4
2018-12-29,02:55:00,DRY,2.75,7.15,9.0,776.00,1.1
2018-12-29,03:00:00,DRY,3.10,7.07,9.0,776.00,0.9
2018-12-29,03:05:00,DRY,3.50,6.80,8.5,776.00,1.1
2018-12-29,03:10:00,DRY,3.13,6.80,9.0,776.00,1.5
2018-12-29,03:15:00,DRY,3.00,7.05,9.5,776.00,1.4
2018-12-29,03:20:00,DRY,3.30,6.83,8.0,776.00,0.6
2018-12-29,03:25:00,DRY,2.85,6.75,10.0,776.00,1.1
2018-12-29,03:30:00,DRY,2.63,6.13,13.3,776.00,1.6
2018-12-29,03:35:00,DRY,3.20,5.95,14.0,776.00,1.5
2018-12-29,03:40:00,DRY,2.73,5.70,14.3,776.00,1.6
2018-12-29,03:45:00,DRY,2.60,5.60,14.5,776.00,2.0
2018-12-29,03:50:00,DRY,2.47,5.67,14.3,776.00,1.9
2018-12-29,03:55:00,DRY,2.60,5.65,15.0,776.00,1.1
2018-12-29,04:00:00,DRY,2.27,5.53,15.0,775.67,1.1
2018-12-29,04:05:00,DRY,2.85,5.55,15.0,775.50,1.2
2018-12-29,04:10:00,DRY,3.27,5.33,15.0,775.67,1.5
2018-12-29,04:15:00,DRY,2.45,5.35,15.0,775.00,0.9
2018-12-29,04:20:00,DRY,3.20,5.47,15.0,775.33,0.9
2018-12-29,04:25:00,DRY,1.90,5.55,15.0,775.00,1.5
2018-12-29,04:30:00,DRY,2.33,5.67,14.3,775.00,1.2
2018-12-29,04:35:00,DRY,2.60,5.80,14.0,775.00,1.2
2018-12-29,04:40:00,DRY,3.00,5.87,13.7,775.00,1.3
2018-12-29,04:45:00,DRY,3.35,5.65,14.0,775.00,0.7
2018-12-29,04:50:00,DRY,2.87,5.43,14.0,775.00,1.1
2018-12-29,04:55:00,DRY,2.30,5.50,14.0,775.00,0.4
2018-12-29,05:00:00,DRY,2.33,5.43,13.7,775.00,1.5
2018-12-29,05:05:00,DRY,1.90,5.50,13.0,775.00,1.8
2018-12-29,05:10:00,DRY,2.10,5.67,12.7,775.00,0.8
2018-12-29,05:15:00,DRY,2.00,5.70,13.0,775.00,0.9
2018-12-29,05:20:00,DRY,2.47,6.17,9.3,775.00,1.3
2018-12-29,05:25:00,DRY,3.20,6.65,6.5,775.00,0.9
2018-12-29,05:30:00,DRY,2.60,6.47,6.0,775.00,2.0
2018-12-29,05:35:00,DRY,2.75,6.55,6.5,775.00,1.1
2018-12-29,05:40:00,DRY,2.73,6.67,6.3,775.00,2.3
2018-12-29,05:45:00,DRY,2.65,6.65,6.0,775.00,0.5
2018-12-29,05:50:00,DRY,2.20,6.27,7.3,775.00,1.6
2018-12-29,05:55:00,DRY,2.30,6.10,7.0,775.00,2.5
2018-12-29,06:00:00,DRY,2.20,6.37,8.0,775.00,1.6
2018-12-29,06:05:00,DRY,2.70,6.30,9.0,775.00,1.1
2018-12-29,06:10:00,DRY,3.07,6.43,8.0,775.00,1.5
2018-12-29,06:15:00,DRY,2.50,6.65,8.0,775.00,2.1
2018-12-29,06:20:00,DRY,1.80,5.87,10.0,775.00,1.5
2018-12-29,06:25:00,DRY,2.10,5.50,10.5,775.00,2.3
2018-12-29,06:30:00,DRY,3.80,5.63,10.3,775.00,1.3
2018-12-29,06:35:00,DRY,3.60,5.70,10.5,775.00,1.3
2018-12-29,06:40:00,DRY,2.73,5.30,11.0,775.00,0.6
2018-12-29,06:45:00,DRY,2.30,5.10,12.0,775.00,1.6
2018-12-29,06:50:00,DRY,2.60,5.00,12.0,775.00,1.0
2018-12-29,06:55:00,DRY,2.70,4.90,12.5,775.00,0.3
2018-12-29,07:00:00,DRY,2.83,4.93,12.7,775.00,1.7
2018-12-29,07:05:00,DRY,3.55,5.00,12.5,775.00,1.0
2018-12-29,07:10:00,DRY,3.83,5.17,12.3,775.00,1.2
2018-12-29,07:15:00,DRY,4.35,5.55,12.0,775.00,1.2
2018-12-29,07:20:00,DRY,4.07,5.40,12.0,775.00,1.3
2018-12-29,07:25:00,DRY,3.95,5.10,12.0,775.00,1.2
2018-12-29,07:30:00,DRY,3.67,5.10,11.7,775.00,1.3
2018-12-29,07:35:00,DRY,3.80,5.20,12.0,775.00,1.4
2018-12-29,07:40:00,DRY,3.80,5.00,12.0,775.00,1.1
2018-12-29,07:45:00,DRY,2.95,4.80,12.0,775.00,1.3
2018-12-29,07:50:00,DRY,4.00,5.00,11.3,775.00,2.4
2018-12-29,07:55:00,DRY,3.60,5.05,12.0,775.00,3.8
2018-12-29,08:00:00,DRY,3.77,4.93,12.0,775.00,5.1
2018-12-29,08:05:00,DRY,3.15,4.65,12.0,775.00,7.8
2018-12-29,08:10:00,DRY,3.37,4.63,13.0,775.00,9.8
2018-12-29,08:15:00,DRY,3.80,4.75,13.0,775.00,12.0
2018-12-29,08:20:00,DRY,3.87,4.50,13.0,775.00,13.6
2018-12-29,08:25:00,DRY,4.10,4.55,13.0,775.00,15.1
2018-12-29,08:30:00,DRY,3.83,4.67,12.7,775.33,16.4
2018-12-29,08:35:00,DRY,4.95,4.90,12.0,775.00,18.0
2018-12-29,08:40:00,DRY,5.00,5.33,11.3,776.00,20.8
2018-12-29,08:45:00,DRY,3.80,5.55,11.0,776.00,63.7
2018-12-29,08:50:00,DRY,5.07,5.73,10.0,776.00,170.6
2018-12-29,08:55:00,DRY,5.05,5.90,9.5,776.00,187.7
2018-12-29,09:00:00,DRY,4.83,5.97,9.0,776.00,206.0
2018-12-29,09:05:00,DRY,5.15,6.00,10.0,776.00,223.8
2018-12-29,09:10:00,DRY,5.23,6.17,9.3,776.00,242.0
2018-12-29,09:15:00,DRY,5.05,6.15,9.0,776.00,260.4
2018-12-29,09:20:00,DRY,5.20,6.20,9.0,776.00,278.1
2018-12-29,09:25:00,DRY,4.65,6.35,9.0,776.00,295.6
2018-12-29,09:30:00,DRY,4.43,6.47,9.0,776.00,314.2
2018-12-29,09:35:00,DRY,4.55,6.65,8.0,776.00,331.2
2018-12-29,09:40:00,DRY,4.17,6.77,8.3,776.00,349.1
2018-12-29,09:45:00,DRY,3.75,6.80,8.0,776.00,366.0
2018-12-29,09:50:00,DRY,3.60,6.83,8.7,776.00,383.2
2018-12-29,09:55:00,DRY,3.05,6.90,9.0,776.00,400.0
2018-12-29,10:00:00,DRY,4.07,7.03,8.0,776.00,416.8
2018-12-29,10:05:00,DRY,2.65,7.15,8.5,776.00,431.4
2018-12-29,10:10:00,DRY,3.17,7.47,7.7,776.00,447.5
2018-12-29,10:15:00,DRY,3.15,7.70,9.5,776.00,463.3
2018-12-29,10:20:00,DRY,2.57,7.90,8.0,776.00,479.2
2018-12-29,10:25:00,DRY,2.45,7.90,9.5,776.00,493.1
2018-12-29,10:30:00,DRY,2.83,7.90,9.7,776.00,508.3
2018-12-29,10:35:00,DRY,2.70,7.90,9.5,776.00,523.1
2018-12-29,10:40:00,DRY,2.03,7.93,9.7,776.00,536.3
2018-12-29,10:45:00,DRY,2.55,7.95,11.0,776.00,549.8
2018-12-29,10:50:00,DRY,2.17,8.07,10.7,775.00,562.3
2018-12-29,10:55:00,DRY,2.25,8.15,11.5,775.00,574.9
2018-12-29,11:00:00,DRY,2.73,8.27,11.7,775.00,586.8
2018-12-29,11:05:00,DRY,2.25,8.20,12.0,775.50,599.0
2018-12-29,11:10:00,DRY,2.43,8.20,11.7,775.00,610.3
2018-12-29,11:15:00,DRY,3.05,8.25,11.0,775.00,621.8
2018-12-29,11:20:00,DRY,2.87,8.17,11.3,775.00,630.9
2018-12-29,11:25:00,DRY,2.60,8.15,9.5,775.00,641.7
2018-12-29,11:30:00,DRY,2.13,8.30,11.0,775.00,650.7
2018-12-29,11:35:00,DRY,2.45,8.40,10.5,775.00,660.0
2018-12-29,11:40:00,DRY,2.47,8.33,9.7,775.00,668.4
2018-12-29,11:45:00,DRY,1.80,8.35,9.5,775.00,677.1
2018-12-29,11:50:00,DRY,2.00,8.53,10.0,775.00,685.3
2018-12-29,11:55:00,DRY,1.45,8.75,11.0,775.00,691.8
2018-12-29,12:00:00,DRY,2.07,8.63,10.0,775.00,699.6
2018-12-29,12:05:00,DRY,2.30,8.55,10.5,775.00,706.5
2018-12-29,12:10:00,DRY,1.80,8.70,11.0,775.00,711.0
2018-12-29,12:15:00,DRY,1.70,8.95,11.5,775.00,716.6
2018-12-29,12:20:00,DRY,2.27,8.80,11.7,775.00,721.2
2018-12-29,12:25:00,DRY,2.10,8.75,11.0,775.00,727.7
2018-12-29,12:30:00,DRY,2.33,8.73,9.7,774.33,731.4
2018-12-29,12:35:00,DRY,2.45,8.80,9.5,774.00,734.5
2018-12-29,12:40:00,DRY,2.07,9.00,9.3,774.00,737.6
2018-12-29,12:45:00,DRY,2.25,9.20,9.5,774.00,740.5
2018-12-29,12:50:00,DRY,2.13,9.57,10.7,774.00,742.3
2018-12-29,12:55:00,DRY,3.55,9.70,8.5,774.00,744.8
2018-12-29,13:00:00,DRY,2.23,9.77,9.0,774.00,747.7
2018-12-29,13:05:00,DRY,3.80,9.90,7.5,774.00,751.6
2018-12-29,13:10:00,DRY,2.47,9.73,9.0,774.00,748.5
2018-12-29,13:15:00,DRY,2.45,9.80,8.0,774.00,745.4
2018-12-29,13:20:00,DRY,2.87,9.87,8.0,774.00,746.8
2018-12-29,13:25:00,DRY,2.70,10.00,8.0,774.00,746.4
2018-12-29,13:30:00,DRY,2.80,10.10,6.0,774.00,744.3
2018-12-29,13:35:00,DRY,2.20,10.00,7.0,774.00,738.7
2018-12-29,13:40:00,DRY,2.97,10.00,6.3,774.00,737.3
2018-12-29,13:45:00,DRY,2.85,9.90,7.0,774.00,732.8
2018-12-29,13:50:00,DRY,2.90,10.00,7.3,774.00,730.5
2018-12-29,13:55:00,DRY,3.05,10.15,7.5,774.00,727.5
2018-12-29,14:00:00,DRY,3.20,10.17,8.7,774.00,723.3
2018-12-29,14:05:00,DRY,2.00,10.25,9.0,774.00,717.0
2018-12-29,14:10:00,DRY,2.83,10.13,7.7,773.67,713.2
2018-12-29,14:15:00,DRY,1.85,10.20,9.5,774.00,703.0
2018-12-29,14:20:00,DRY,2.33,10.20,8.3,773.67,708.8
2018-12-29,14:25:00,DRY,3.50,10.00,8.5,774.00,691.5
2018-12-29,14:30:00,DRY,2.73,10.03,8.3,774.00,684.2
2018-12-29,14:35:00,DRY,3.10,9.90,8.5,773.50,677.5
2018-12-29,14:40:00,DRY,2.07,10.00,7.7,774.00,669.4
2018-12-29,14:45:00,DRY,2.25,10.15,8.0,774.00,661.1
2018-12-29,14:50:00,DRY,2.50,9.97,8.7,773.67,651.2
2018-12-29,14:55:00,DRY,2.95,9.80,9.5,774.00,642.0
2018-12-29,15:00:00,DRY,2.93,9.77,9.3,774.00,631.4
2018-12-29,15:05:00,DRY,2.40,9.65,11.5,774.00,622.0
2018-12-29,15:10:00,DRY,2.03,9.67,11.0,774.00,611.6
2018-12-29,15:15:00,DRY,2.00,9.65,11.5,774.00,600.1
2018-12-29,15:20:00,DRY,1.87,9.57,12.7,774.00,588.1
2018-12-29,15:25:00,DRY,1.55,9.30,13.0,774.00,575.5
2018-12-29,15:30:00,DRY,1.67,9.40,12.3,774.00,563.5
2018-12-29,15:35:00,DRY,2.20,9.25,13.5,774.00,551.0
2018-12-29,15:40:00,DRY,1.90,9.33,12.7,774.00,537.4
2018-12-29,15:45:00,DRY,2.15,9.40,10.5,774.00,524.3
2018-12-29,15:50:00,DRY,1.63,9.37,10.0,774.00,509.6
2018-12-29,15:55:00,DRY,1.70,9.25,13.5,774.00,495.5
2018-12-29,16:00:00,DRY,1.47,9.20,13.7,774.00,481.7
2018-12-29,16:05:00,DRY,1.80,9.15,13.0,774.00,465.1
2018-12-29,16:10:00,DRY,2.15,8.85,15.0,774.00,447.3
2018-12-29,16:15:00,DRY,2.00,8.70,13.5,774.00,433.7
2018-12-29,16:20:00,DRY,2.03,8.57,12.7,774.00,418.2
2018-12-29,16:25:00,DRY,2.30,8.40,11.0,774.00,401.2
2018-12-29,16:30:00,DRY,1.77,8.57,10.3,774.00,385.5
2018-12-29,16:35:00,DRY,2.20,8.40,8.5,774.00,368.5
2018-12-29,16:40:00,DRY,2.17,8.33,9.0,774.00,350.5
2018-12-29,16:45:00,DRY,1.80,8.15,8.0,774.00,333.5
2018-12-29,16:50:00,DRY,1.90,8.03,8.3,774.00,315.8
2018-12-29,16:55:00,DRY,1.60,8.00,6.5,774.00,298.2
2018-12-29,17:00:00,DRY,2.00,7.93,6.0,774.00,280.3
2018-12-29,17:05:00,DRY,2.30,7.90,6.5,774.00,262.9
2018-12-29,17:10:00,DRY,2.03,7.77,7.0,774.00,244.3
2018-12-29,17:15:00,DRY,1.75,7.70,6.0,774.00,226.1
2018-12-29,17:20:00,DRY,2.13,7.60,5.3,774.00,209.6
2018-12-29,17:25:00,DRY,1.95,7.70,5.5,774.00,190.8
2018-12-29,17:30:00,DRY,1.77,7.67,5.0,774.00,175.3
2018-12-29,17:35:00,DRY,1.80,7.65,4.5,774.00,158.4
2018-12-29,17:40:00,DRY,1.67,7.53,5.3,774.00,139.8
2018-12-29,17:45:00,DRY,1.95,7.35,5.0,774.00,114.1
2018-12-29,17:50:00,DRY,1.00,7.20,8.0,774.00,92.2
2018-12-29,17:55:00,DRY,1.80,7.35,6.5,774.00,70.3
2018-12-29,18:00:00,DRY,1.63,7.07,7.0,774.00,52.8
2018-12-29,18:05:00,DRY,1.50,6.85,7.5,774.00,36.8
2018-12-29,18:10:00,DRY,1.83,6.77,7.0,774.00,23.6
2018-12-29,18:15:00,DRY,2.10,6.80,6.5,774.00,16.3
2018-12-29,18:20:00,DRY,2.43,6.83,5.7,774.00,13.1
2018-12-29,18:25:00,DRY,2.15,6.90,5.0,774.00,8.1
2018-12-29,18:30:00,DRY,1.73,6.70,5.0,774.00,5.2
2018-12-29,18:35:00,DRY,0.40,6.45,5.0,774.00,3.3
2018-12-29,18:40:00,DRY,0.93,6.30,5.0,774.00,2.2
2018-12-29,18:45:00,DRY,1.20,6.35,5.0,774.00,1.3
2018-12-29,18:50:00,DRY,1.57,6.77,4.3,774.00,1.3
2018-12-29,18:55:00,DRY,2.10,6.90,4.0,774.00,1.4
2018-12-29,19:00:00,DRY,2.17,7.03,4.0,774.00,0.5
2018-12-29,19:05:00,DRY,1.35,7.30,4.0,774.00,0.7
2018-12-29,19:10:00,DRY,1.70,7.13,4.0,774.00,1.7
2018-12-29,19:15:00,DRY,1.85,7.10,4.0,774.00,1.1
2018-12-29,19:20:00,DRY,2.03,7.40,4.0,774.00,0.9
2018-12-29,19:25:00,DRY,1.50,7.45,4.0,774.00,0.4
2018-12-29,19:30:00,DRY,2.00,7.07,4.0,774.00,0.9
2018-12-29,19:35:00,DRY,2.20,6.95,4.0,774.00,1.0
2018-12-29,19:40:00,DRY,2.47,6.73,4.0,774.00,0.7
2018-12-29,19:45:00,DRY,2.60,6.45,5.0,774.00,1.9
2018-12-29,19:50:00,DRY,2.33,6.30,5.0,774.00,1.3
2018-12-29,19:55:00,DRY,2.25,6.40,5.0,774.50,1.8
2018-12-29,20:00:00,DRY,2.17,6.40,5.0,774.00,1.7
2018-12-29,20:05:00,DRY,2.40,6.55,4.5,774.00,1.1
2018-12-29,20:10:00,DRY,2.17,6.53,4.7,774.00,0.6
2018-12-29,20:15:00,DRY,2.45,6.25,5.0,774.00,0.8
2018-12-29,20:20:00,DRY,2.33,6.43,4.3,774.00,0.7
2018-12-29,20:25:00,DRY,2.30,6.60,4.0,774.00,1.2
2018-12-29,20:30:00,DRY,2.57,6.60,4.0,774.00,1.6
2018-12-29,20:35:00,DRY,2.00,6.80,4.0,774.00,0.5
2018-12-29,20:40:00,DRY,2.53,6.70,4.0,774.33,1.8
2018-12-29,20:45:00,DRY,3.15,6.75,4.0,774.00,2.2
2018-12-29,20:50:00,DRY,3.30,6.93,4.0,774.00,0.9
2018-12-29,20:55:00,DRY,3.10,6.50,4.5,774.00,1.3
2018-12-29,21:00:00,DRY,2.93,6.50,4.0,774.00,1.2
2018-12-29,21:05:00,DRY,2.95,6.60,4.0,774.00,1.2
2018-12-29,21:10:00,DRY,3.33,6.80,4.0,774.00,1.3
2018-12-29,21:15:00,DRY,3.05,6.90,4.0,774.00,1.1
2018-12-29,21:20:00,DRY,2.90,6.77,4.0,774.00,0.7
2018-12-29,21:25:00,DRY,2.65,6.50,4.0,774.00,1.0
2018-12-29,21:30:00,DRY,3.00,6.67,4.0,774.00,0.6
2018-12-29,21:35:00,DRY,3.50,6.60,4.0,774.00,1.0
2018-12-29,21:40:00,DRY,3.60,6.60,4.0,774.00,0.7
2018-12-29,21:45:00,DRY,3.80,6.90,4.0,774.00,1.1
2018-12-29,21:50:00,DRY,3.63,6.90,4.0,774.00,1.2
2018-12-29,21:55:00,DRY,3.70,7.20,4.0,774.00,1.3
2018-12-29,22:00:00,DRY,3.53,7.13,4.0,774.00,1.3
2018-12-29,22:05:00,DRY,3.40,6.85,4.0,774.00,1.1
2018-12-29,22:10:00,DRY,3.83,6.93,4.0,774.00,1.3
2018-12-29,22:15:00,DRY,3.50,6.85,4.0,774.00,1.4
2018-12-29,22:20:00,DRY,3.43,6.87,4.0,774.00,1.4
2018-12-29,22:25:00,DRY,3.25,6.95,4.0,774.00,1.6
2018-12-29,22:30:00,DRY,3.60,6.90,4.0,774.00,1.2
2018-12-29,22:35:00,DRY,3.70,6.75,4.0,774.00,1.0
2018-12-29,22:40:00,DRY,3.50,6.97,4.0,774.00,1.4
2018-12-29,22:45:00,DRY,3.95,7.05,4.0,774.00,1.0
2018-12-29,22:50:00,DRY,3.50,7.10,4.0,774.00,1.7
2018-12-29,22:55:00,DRY,3.25,6.80,4.0,774.00,0.8
2018-12-29,23:00:00,DRY,3.77,6.90,4.0,774.00,1.0
2018-12-29,23:05:00,DRY,3.25,6.90,4.0,774.00,1.1
2018-12-29,23:10:00,DRY,3.00,6.77,4.0,774.00,1.1
2018-12-29,23:15:00,DRY,3.40,6.70,4.0,774.00,0.8
2018-12-29,23:20:00,DRY,3.50,6.63,4.0,774.00,0.9
2018-12-29,23:25:00,DRY,3.70,6.70,4.0,773.50,1.1
2018-12-29,23:30:00,DRY,3.47,6.60,4.0,773.00,1.2
2018-12-29,23:35:00,DRY,3.55,6.55,4.0,773.00,1.1
2018-12-29,23:40:00,DRY,3.23,6.47,4.0,773.00,1.1
2018-12-29,23:45:00,DRY,2.95,6.40,4.0,773.00,1.4
2018-12-29,23:50:00,DRY,2.93,6.47,4.0,773.00,1.1
2018-12-29,23:55:00,DRY,3.25,6.65,4.0,773.00,1.2
2018-12-30,00:00:00,DRY,3.40,6.57,4.0,773.00,0.9
2018-12-30,00:05:00,DRY,3.70,6.40,4.0,773.00,1.3
2018-12-30,00:10:00,DRY,3.47,6.33,4.0,773.00,1.2
2018-12-30,00:15:00,DRY,2.90,6.30,4.0,773.00,1.7
2018-12-30,00:20:00,DRY,3.07,6.47,4.0,773.00,1.1
2018-12-30,00:25:00,DRY,3.70,6.80,4.0,773.00,1.9
2018-12-30,00:30:00,DRY,3.13,6.43,4.0,773.00,2.1
2018-12-30,00:35:00,DRY,3.60,6.45,4.0,773.00,1.6
2018-12-30,00:40:00,DRY,3.67,6.47,4.0,773.00,0.8
2018-12-30,00:45:00,DRY,4.10,6.75,4.0,773.00,1.1
2018-12-30,00:50:00,DRY,4.13,6.83,4.0,773.00,1.2
2018-12-30,00:55:00,DRY,3.90,6.85,4.0,773.00,1.4
2018-12-30,01:00:00,DRY,3.77,6.87,4.0,773.00,1.2
2018-12-30,01:05:00,DRY,3.60,7.00,4.0,773.00,1.6
2018-12-30,01:10:00,DRY,3.67,6.73,4.0,773.00,1.0
2018-12-30,01:15:00,DRY,3.55,6.95,4.0,773.00,1.0
2018-12-30,01:20:00,DRY,3.40,6.80,4.0,773.00,1.1
2018-12-30,01:25:00,DRY,3.50,6.70,4.0,773.00,1.1
2018-12-30,01:30:00,DRY,3.40,6.67,4.0,773.00,1.7
2018-12-30,01:35:00,DRY,3.40,6.55,4.0,773.00,0.6
2018-12-30,01:40:00,DRY,3.50,6.43,4.0,773.00,1.0
2018-12-30,01:45:00,DRY,3.90,6.50,4.0,773.00,1.2
2018-12-30,01:50:00,DRY,4.50,6.37,4.0,772.33,1.1
2018-12-30,01:55:00,DRY,3.50,6.45,4.0,772.50,1.2
2018-12-30,02:00:00,DRY,3.83,6.53,4.0,772.67,1.7
2018-12-30,02:05:00,DRY,4.40,6.45,4.0,773.00,1.4
2018-12-30,02:10:00,DRY,3.90,6.67,4.0,773.00,1.3
2018-12-30,02:15:00,DRY,4.25,6.85,4.0,773.00,1.1
2018-12-30,02:20:00,DRY,3.83,6.90,3.7,773.00,1.3
2018-12-30,02:25:00,DRY,4.15,6.95,3.0,773.00,1.0
2018-12-30,02:30:00,DRY,3.63,6.90,3.3,772.33,1.6
2018-12-30,02:35:00,DRY,4.55,7.00,3.0,772.00,1.1
2018-12-30,02:40:00,DRY,4.90,7.10,3.0,772.00,1.2
2018-12-30,02:45:00,DRY,4.35,7.10,3.5,772.00,2.0
2018-12-30,02:50:00,DRY,4.97,7.07,3.3,772.00,1.1
2018-12-30,02:55:00,DRY,4.85,6.85,4.0,772.00,0.7
2018-12-30,03:00:00,DRY,4.10,6.97,3.3,772.00,0.6
2018-12-30,03:05:00,DRY,3.95,6.90,3.5,772.00,1.2
2018-12-30,03:10:00,DRY,4.40,6.97,3.3,772.00,1.1
2018-12-30,03:15:00,DRY,3.75,6.85,4.0,772.00,1.1
2018-12-30,03:20:00,DRY,4.33,6.93,3.7,772.00,1.1
2018-12-30,03:25:00,DRY,4.05,7.15,3.0,772.00,1.3
2018-12-30,03:30:00,DRY,3.90,6.97,3.3,772.00,1.4
2018-12-30,03:35:00,DRY,4.75,6.90,3.5,772.00,1.1
2018-12-30,03:40:00,DRY,4.10,6.93,3.0,772.00,1.1
2018-12-30,03:45:00,DRY,3.30,7.00,3.0,772.00,1.2
2018-12-30,03:50:00,DRY,4.27,6.90,4.0,772.00,1.2
2018-12-30,03:55:00,DRY,3.25,6.85,3.0,772.00,1.1
2018-12-30,04:00:00,DRY,3.67,6.93,3.0,772.00,1.5
2018-12-30,04:05:00,DRY,3.75,6.85,3.0,772.00,1.9
2018-12-30,04:10:00,DRY,3.37,6.93,3.0,771.67,2.0
2018-12-30,04:15:00,DRY,5.25,7.00,3.0,771.00,1.2
2018-12-30,04:20:00,DRY,4.67,6.93,3.0,771.00,1.1
2018-12-30,04:25:00,DRY,5.90,6.95,3.0,771.00,1.2
2018-12-30,04:30:00,DRY,3.40,7.03,3.0,771.00,1.1
2018-12-30,04:35:00,DRY,4.55,7.10,3.0,771.00,1.2
2018-12-30,04:40:00,DRY,4.43,7.07,3.0,771.00,1.0
2018-12-30,04:45:00,DRY,3.60,7.10,3.0,771.00,1.0
2018-12-30,04:50:00,DRY,3.97,7.03,3.0,771.00,0.9
2018-12-30,04:55:00,DRY,4.30,7.20,3.0,771.00,1.1
2018-12-30,05:00:00,DRY,4.33,7.23,3.0,771.00,1.3
2018-12-30,05:05:00,DRY,6.00,7.25,3.0,771.00,1.1
2018-12-30,05:10:00,DRY,3.93,7.33,3.0,771.00,1.2
2018-12-30,05:15:00,DRY,3.20,7.20,3.0,771.00,0.8
2018-12-30,05:20:00,DRY,3.57,7.33,3.0,771.00,0.7
2018-12-30,05:25:00,DRY,3.15,7.30,3.0,771.00,0.8
2018-12-30,05:30:00,DRY,4.87,7.33,3.0,771.00,1.4
2018-12-30,05:35:00,DRY,4.40,7.15,3.0,771.00,1.2
2018-12-30,05:40:00,DRY,4.40,6.60,4.0,771.00,1.3
2018-12-30,05:45:00,DRY,3.65,6.00,5.0,771.00,1.0
2018-12-30,05:50:00,DRY,3.63,6.00,4.7,771.00,1.8
2018-12-30,05:55:00,DRY,4.05,6.10,5.5,771.00,1.1
2018-12-30,06:00:00,DRY,4.73,5.80,6.0,771.00,1.4
2018-12-30,06:05:00,DRY,4.25,5.65,7.0,771.00,1.1
2018-12-30,06:10:00,DRY,4.00,5.27,9.3,771.00,1.3
2018-12-30,06:15:00,DRY,3.45,4.15,13.5,771.00,2.5
2018-12-30,06:20:00,DRY,4.00,3.80,14.0,771.00,1.5
2018-12-30,06:25:00,DRY,4.55,3.60,13.5,771.00,1.4
2018-12-30,06:30:00,DRY,5.10,3.67,13.7,771.00,1.3
2018-12-30,06:35:00,DRY,5.90,3.60,13.5,771.00,0.9
2018-12-30,06:40:00,DRY,5.83,3.70,13.7,771.00,0.8
2018-12-30,06:45:00,DRY,6.00,3.90,14.0,771.00,1.3
2018-12-30,06:50:00,DRY,6.03,4.03,13.7,771.00,1.2
2018-12-30,06:55:00,DRY,6.30,3.90,14.0,771.00,1.2
2018-12-30,07:00:00,DRY,5.33,3.83,14.0,771.00,1.2
2018-12-30,07:05:00,DRY,6.50,4.30,13.0,771.00,1.1
2018-12-30,07:10:00,DRY,5.30,4.13,13.3,771.00,1.4
2018-12-30,07:15:00,DRY,5.35,4.25,13.0,771.00,1.2
2018-12-30,07:20:00,DRY,5.13,4.27,13.0,771.00,1.5
2018-12-30,07:25:00,DRY,5.30,4.20,14.0,771.00,1.1
2018-12-30,07:30:00,DRY,4.90,3.97,14.3,771.00,1.1
2018-12-30,07:35:00,DRY,5.70,3.85,14.5,771.00,1.3
2018-12-30,07:40:00,DRY,5.10,4.20,13.7,771.00,1.4
2018-12-30,07:45:00,DRY,4.60,4.45,13.0,771.00,1.4
2018-12-30,07:50:00,DRY,5.27,4.40,12.7,771.00,3.4
2018-12-30,07:55:00,DRY,4.75,4.40,12.5,771.00,5.6
2018-12-30,08:00:00,DRY,5.20,4.63,12.0,771.00,6.9
2018-12-30,08:05:00,DRY,4.65,4.80,11.0,771.50,8.8
2018-12-30,08:10:00,DRY,5.00,4.97,11.0,772.00,12.8
2018-12-30,08:15:00,DRY,5.25,5.05,11.0,772.00,16.6
2018-12-30,08:20:00,DRY,6.07,5.17,11.0,771.33,20.7
2018-12-30,08:25:00,DRY,6.15,5.30,11.0,771.00,22.6
2018-12-30,08:30:00,DRY,5.07,5.23,11.0,772.00,24.2
2018-12-30,08:35:00,DRY,5.45,5.25,11.0,772.00,27.0
2018-12-30,08:40:00,DRY,5.60,5.13,11.0,772.00,30.4
2018-12-30,08:45:00,DRY,5.25,5.25,10.5,772.00,57.9
2018-12-30,08:50:00,DRY,5.00,5.03,11.0,772.00,115.7
2018-12-30,08:55:00,DRY,5.20,5.25,11.0,772.00,169.1
2018-12-30,09:00:00,DRY,4.10,5.10,11.0,772.00,186.0
2018-12-30,09:05:00,DRY,4.35,5.00,11.0,772.00,177.1
2018-12-30,09:10:00,DRY,4.27,5.00,11.3,772.00,205.6
2018-12-30,09:15:00,DRY,5.30,5.15,11.0,772.00,247.9
2018-12-30,09:20:00,DRY,4.63,5.17,11.0,772.00,271.0
2018-12-30,09:25:00,DRY,4.05,5.00,11.5,772.00,268.1
2018-12-30,09:30:00,DRY,4.47,5.03,12.0,772.00,306.0
2018-12-30,09:35:00,DRY,4.55,5.15,12.0,772.00,311.1
2018-12-30,09:40:00,DRY,3.90,5.20,11.7,772.00,365.8
2018-12-30,09:45:00,DRY,4.20,5.20,11.5,772.00,391.0
2018-12-30,09:50:00,DRY,4.33,5.63,10.7,772.00,349.8
2018-12-30,09:55:00,DRY,4.40,5.50,11.5,772.00,388.2
2018-12-30,10:00:00,DRY,3.03,5.77,10.7,772.00,375.5
2018-12-30,10:05:00,DRY,3.00,5.85,10.5,772.00,410.6
2018-12-30,10:10:00,DRY,4.00,6.00,11.0,772.00,418.2
2018-12-30,10:15:00,DRY,3.30,6.15,10.5,772.00,447.9
2018-12-30,10:20:00,DRY,3.30,6.10,11.7,772.00,482.7
2018-12-30,10:25:00,DRY,3.15,6.35,10.5,772.00,455.2
2018-12-30,10:30:00,DRY,2.17,6.50,10.3,772.00,439.9
2018-12-30,10:35:00,DRY,2.85,6.40,10.5,772.00,545.6
2018-12-30,10:40:00,DRY,3.07,6.57,10.7,772.00,496.5
2018-12-30,10:45:00,DRY,2.10,6.65,10.0,772.00,499.0
2018-12-30,10:50:00,DRY,2.60,6.77,10.7,772.00,515.8
2018-12-30,10:55:00,DRY,2.80,6.80,10.0,772.00,566.9
2018-12-30,11:00:00,DRY,2.73,6.87,10.3,772.00,539.6
2018-12-30,11:05:00,DRY,1.75,6.95,10.0,772.00,572.0
2018-12-30,11:10:00,DRY,3.17,6.97,10.0,771.00,574.4
2018-12-30,11:15:00,DRY,1.90,6.85,8.5,771.00,452.9
2018-12-30,11:20:00,DRY,1.63,7.20,8.0,771.00,569.6
2018-12-30,11:25:00,DRY,2.30,7.30,8.0,771.00,619.8
2018-12-30,11:30:00,DRY,1.30,7.57,8.3,771.00,600.0
2018-12-30,11:35:00,DRY,1.20,7.75,8.0,771.00,642.5
2018-12-30,11:40:00,DRY,1.27,7.83,8.0,771.00,688.7
2018-12-30,11:45:00,DRY,1.55,7.60,9.5,771.00,705.2
2018-12-30,11:50:00,DRY,0.80,7.83,9.0,771.00,695.3
2018-12-30,11:55:00,DRY,2.55,7.50,9.0,771.00,595.5
2018-12-30,12:00:00,DRY,2.33,7.27,10.3,771.00,682.1
2018-12-30,12:05:00,DRY,1.35,7.50,11.5,771.00,668.9
2018-12-30,12:10:00,DRY,1.37,7.57,15.0,771.00,704.7
2018-12-30,12:15:00,DRY,1.25,7.95,16.5,771.00,701.0
2018-12-30,12:20:00,DRY,3.17,7.40,18.7,771.00,725.8
2018-12-30,12:25:00,DRY,1.20,7.45,23.0,771.00,746.8
2018-12-30,12:30:00,DRY,1.37,7.57,28.7,771.00,737.1
2018-12-30,12:35:00,DRY,2.50,7.40,29.5,770.50,748.7
2018-12-30,12:40:00,DRY,1.80,7.53,23.0,770.00,737.0
2018-12-30,12:45:00,DRY,2.35,7.65,24.5,770.00,736.9
2018-12-30,12:50:00,DRY,1.97,7.67,18.0,770.00,745.0
2018-12-30,12:55:00,DRY,2.15,7.80,24.0,770.00,725.0
2018-12-30,13:00:00,DRY,1.80,7.37,28.3,770.00,761.5
2018-12-30,13:05:00,DRY,2.25,7.55,30.0,770.00,805.9
2018-12-30,13:10:00,DRY,2.50,7.53,24.7,770.00,768.0
2018-12-30,13:15:00,DRY,2.35,7.75,23.5,770.00,730.9
2018-12-30,13:20:00,DRY,1.77,7.93,26.0,770.00,698.5
2018-12-30,13:25:00,DRY,1.05,7.70,32.0,770.00,784.5
2018-12-30,13:30:00,DRY,1.50,7.40,37.0,770.00,766.8
2018-12-30,13:35:00,DRY,2.30,7.40,40.0,770.00,696.6
2018-12-30,13:40:00,DRY,1.17,7.30,44.3,770.00,580.7
2018-12-30,13:45:00,DRY,2.25,7.25,38.0,770.00,760.5
2018-12-30,13:50:00,DRY,2.13,6.57,54.3,770.00,720.3
2018-12-30,13:55:00,DRY,1.65,6.80,50.5,770.00,676.1
2018-12-30,14:00:00,DRY,1.57,7.30,31.3,770.00,732.1
2018-12-30,14:05:00,DRY,1.55,7.15,42.0,770.00,703.2
2018-12-30,14:10:00,DRY,1.60,7.30,25.5,770.00,600.4
2018-12-30,14:15:00,DRY,3.35,7.35,27.5,770.00,647.5
2018-12-30,14:20:00,DRY,2.30,7.00,17.3,770.00,639.3
2018-12-30,14:25:00,DRY,1.35,6.85,23.0,770.00,706.2
2018-12-30,14:30:00,DRY,2.77,7.23,23.3,770.00,718.0
2018-12-30,14:35:00,DRY,3.00,7.00,28.5,770.00,540.4
2018-12-30,14:40:00,DRY,2.47,6.63,21.3,770.00,763.6
2018-12-30,14:45:00,DRY,2.25,6.55,21.5,770.00,570.0
2018-12-30,14:50:00,DRY,1.20,6.27,39.7,770.00,644.2
2018-12-30,14:55:00,DRY,2.70,6.45,48.0,770.00,585.4
2018-12-30,15:00:00,DRY,1.67,6.47,58.3,770.00,609.9
2018-12-30,15:05:00,DRY,1.30,6.00,63.5,770.00,622.9
2018-12-30,15:10:00,DRY,1.50,4.83,80.0,770.00,626.3
2018-12-30,15:15:00,DRY,0.70,5.05,85.5,770.00,671.5
2018-12-30,15:20:00,DRY,2.10,5.53,64.0,770.00,490.6
2018-12-30,15:25:00,DRY,0.65,5.95,59.0,770.00,640.4
2018-12-30,15:30:00,DRY,1.93,6.33,54.3,770.00,605.1
2018-12-30,15:35:00,DRY,2.45,6.00,61.5,770.00,511.6
2018-12-30,15:40:00,DRY,1.97,5.90,53.3,770.00,565.1
2018-12-30,15:45:00,DRY,1.65,6.65,30.5,770.00,546.0
2018-12-30,15:50:00,DRY,2.43,6.80,28.7,770.00,523.0
2018-12-30,15:55:00,DRY,2.65,6.75,28.0,770.00,502.0
2018-12-30,16:00:00,DRY,1.33,6.53,29.7,770.00,484.5
2018-12-30,16:05:00,DRY,1.45,6.60,30.5,770.00,469.6
2018-12-30,16:10:00,DRY,1.53,7.20,24.7,770.00,452.7
2018-12-30,16:15:00,DRY,3.65,7.45,15.0,770.00,443.1
2018-12-30,16:20:00,DRY,2.00,7.40,15.3,770.00,426.8
2018-12-30,16:25:00,DRY,2.25,7.35,16.5,770.00,409.5
2018-12-30,16:30:00,DRY,1.93,7.17,17.7,770.00,389.0
2018-12-30,16:35:00,DRY,1.40,7.10,17.5,770.00,372.0
2018-12-30,16:40:00,DRY,1.50,7.13,19.3,770.00,335.9
2018-12-30,16:45:00,DRY,1.80,7.05,17.5,770.00,335.4
2018-12-30,16:50:00,DRY,1.93,6.57,15.0,770.00,327.0
2018-12-30,16:55:00,DRY,2.25,6.15,24.0,770.00,306.1
2018-12-30,17:00:00,DRY,1.83,6.07,53.3,770.00,286.3
2018-12-30,17:05:00,DRY,1.50,4.95,73.5,770.00,197.4
2018-12-30,17:10:00,DRY,1.60,4.23,81.3,770.00,232.2
2018-12-30,17:15:00,DRY,1.85,3.05,89.5,770.00,199.9
2018-12-30,17:20:00,DRY,2.67,2.70,88.0,770.00,242.6
2018-12-30,17:25:00,DRY,3.10,2.45,92.5,770.00,186.4
2018-12-30,17:30:00,DRY,1.50,3.67,49.3,770.00,178.4